TimeCDT,TemperatureF,Dew PointF,Humidity,Sea Level PressureIn,VisibilityMPH,Wind Direction,Wind SpeedMPH,Gust SpeedMPH,PrecipitationIn,Events,Conditions,WindDirDegrees,DateUTC
12:53 AM,53.1,36.0,52,30.29,10.0,NE,5.8,-,N/A,,Mostly Cloudy,50,2013-04-25 05:53:00
1:53 AM,52.0,37.9,59,30.28,10.0,NE,4.6,-,N/A,,Mostly Cloudy,40,2013-04-25 06:53:00
2:53 AM,51.1,39.0,63,30.29,10.0,NNE,6.9,-,N/A,,Overcast,30,2013-04-25 07:53:00
3:53 AM,51.1,39.0,63,30.29,10.0,NE,4.6,-,N/A,,Overcast,50,2013-04-25 08:53:00
4:53 AM,51.1,36.0,56,30.30,10.0,NE,5.8,-,N/A,,Overcast,40,2013-04-25 09:53:00
5:53 AM,48.9,37.9,66,30.31,10.0,NNE,4.6,-,N/A,,Overcast,30,2013-04-25 10:53:00
6:53 AM,50.0,39.0,66,30.32,10.0,NNE,3.5,-,N/A,,Overcast,30,2013-04-25 11:53:00
7:53 AM,51.1,37.9,61,30.33,10.0,North,3.5,-,N/A,,Mostly Cloudy,10,2013-04-25 12:53:00
8:53 AM,53.1,36.0,52,30.34,10.0,ENE,4.6,-,N/A,,Overcast,60,2013-04-25 13:53:00
9:53 AM,57.0,37.9,49,30.33,10.0,ESE,4.6,-,N/A,,Scattered Clouds,110,2013-04-25 14:53:00
10:53 AM,61.0,37.9,42,30.32,10.0,Variable,5.8,-,N/A,,Clear,0,2013-04-25 15:53:00
11:53 AM,64.0,39.9,41,30.31,10.0,SE,6.9,-,N/A,,Clear,140,2013-04-25 16:53:00
12:53 PM,64.9,39.9,40,30.29,10.0,Variable,5.8,-,N/A,,Clear,0,2013-04-25 17:53:00
1:53 PM,68.0,41.0,37,30.27,10.0,Calm,Calm,-,N/A,,Clear,0,2013-04-25 18:53:00
2:53 PM,71.1,41.0,34,30.25,10.0,SE,10.4,-,N/A,,Partly Cloudy,130,2013-04-25 19:53:00
3:53 PM,72.0,37.9,29,30.21,10.0,Variable,5.8,-,N/A,,Partly Cloudy,0,2013-04-25 20:53:00
4:53 PM,72.0,41.0,33,30.17,10.0,SSE,17.3,21.9,N/A,,Clear,160,2013-04-25 21:53:00
5:53 PM,71.1,39.9,32,30.16,10.0,SE,17.3,25.3,N/A,,Clear,130,2013-04-25 22:53:00
6:53 PM,69.1,43.0,39,30.15,10.0,SSE,16.1,20.7,N/A,,Clear,150,2013-04-25 23:53:00
7:53 PM,66.9,45.0,45,30.15,10.0,SE,12.7,-,N/A,,Mostly Cloudy,140,2013-04-26 00:53:00
8:53 PM,66.0,44.1,45,30.16,10.0,SSE,11.5,-,N/A,,Overcast,150,2013-04-26 01:53:00
9:53 PM,64.9,44.1,47,30.15,10.0,SE,10.4,-,N/A,,Mostly Cloudy,140,2013-04-26 02:53:00
10:53 PM,64.0,44.1,48,30.14,10.0,SE,10.4,-,N/A,,Clear,130,2013-04-26 03:53:00
11:53 PM,62.1,44.1,52,30.12,10.0,SE,11.5,-,N/A,,Clear,130,2013-04-26 04:53:00